Tracking 34717 objects as of 14-Jul-2026
HD Live streaming from Space Station
objects crossing your sky now

ARIANE 44L DEB

Track ARIANE 44L DEB now!


NORAD ID: 28573
Int'l Code: 1991-003N
Perigee: 689.4 km
Apogee: 30,708.6 km
Inclination: 6.8 °
Period: 543.8 minutes
Semi major axis: 22069 km
RCS: 0.274 m2 (medium)
Launch date: January 15, 1991
Source: France (FR)
Launch site: FRENCH GUIANA (FRGUI)

Note: This is SATELLITE DEBRIS
Your satellite tracking list
Your tracking list is empty




NASA's NSSDC Master Catalog

Two Line Element Set (TLE):
1 28573U 91003N   26195.40496900 -.00000053  00000-0 -40124-3 0  9997
2 28573   6.8230 166.5622 6800917 222.7956 302.0036  2.64789306221620
Source of the keplerian elements: AFSPC